STARLINK-1650 (46573 NORAD) Tracking and Keplerian Element Data

This shows tracking and keplerian element data for the satellite.

Feedback or suggestion? Click here.




ElementValue
Catalog46573
NameSTARLINK-1650
Epoch Orbit966
Epoch Day336.91667824
Epoch Year2020
RAAN165.2662
Inclination52.9994
Eccentricity0.000231
Argument of Perigee35.5031
Mean Anonmoly352.4327
Mean Motion15.62769514
Decay Rate-0.00051576
L11 46573U 20070AT 20336.91667824 -.00051576 00000-0 -56055-3 0 9991
L22 46573 52.9994 165.2662 0002310 35.5031 352.4327 15.62769514 9669

Live tracking and technical data element details for STARLINK-1650 (NORAD 46573). STARLINK-1650 can be tracked NOW for your location showing map with azimuth and elevation plus other details from your city location.

Track the satellite on the map from your city or location and see movement details for azimuth, elevation, latitude, longitude, range, height, and movement on the map or in text.







IsCatalogInMostPopularTable: catalog: 46573, numindb: 13
Update: records affected: 1



GetName: 46573 STARLINK-1650

Hit Count: updated at: Wed, 02 Dec 2020 19:28:56 GMT